Terug naar catalogus

THORAD AGENA D DEB

ActiefSSO
NORAD 42533·DEBRIS·🇺🇸 United States

Gelanceerd Apr 8, 1970 vanaf Vandenberg Space Force Base

Loading…

Volgende Passages (komende 24 uur)

TLE

VersSource: Space-Track

Epoch: Sep 14, 2026, 14:18 UTC

1 42533U 70025SP  26257.59635843  .00001123  00000-0  90516-3 0  9997
2 42533  99.6541 178.0464 0136505  99.0554 262.6077 13.88417003646309

Volg THORAD AGENA D DEB in realtime met AllMySat

Download on the App Store